Regional Weather Roundup
Issued by NWS

Home | Current Version | Previous Version | Graphics & Text | Print | Product List | Glossary On
Versions: 1 2 3 4 5 6 7 8 9 10 11 12 13 14 15 16 17 18 19 20 21 22 23 24 25 26 27 28 29 30 31 32 33 34 35 36 37 38 39 40 41 42 43 44 45 46 47 48 49 50
000
ASUS44 KMEG 231510
RWRTN
TENNESSEE HOURLY STATE WEATHER ROUNDUP
NATIONAL WEATHER SERVICE MEMPHIS TN
1000 AM CDT THU OCT 23 2014

TNZ002-004-019-021-049-052-054-088>092-231600-
WEST TENNESSEE

CITY           SKY/WX    TMP DP  RH WIND       PRES   REMARKS
MEMPHIS INTL   PTSUNNY   56  43  61 E7        30.22R
NWS MEMPHIS      N/A     53 N/A N/A MISG        N/A
JACKSON        SUNNY     51  43  74 E8        30.23R
DYERSBURG      MOSUNNY   54  37  54 E6        30.24F
UNION CITY     SUNNY     50  43  76 CALM      30.23S
PARIS          SUNNY     52  41  66 E9        30.24R
HUNTINGDON     SUNNY     51  42  71 E9        30.23R
LEXINGTON      SUNNY     50  43  76 E6        30.21R
SAVANNAH       SUNNY     52  45  76 NE5       30.21S
$$

TNZ008-025-027-028-033-062-065-066-231600-
NORTH MIDDLE TENNESSEE

CITY           SKY/WX    TMP DP  RH WIND       PRES   REMARKS
NASHVILLE      MOSUNNY   52  42  69 E10       30.24R
CLARKSVILLE    SUNNY     52  44  74 SE7       30.23S
SMYRNA         SUNNY     53  43  69 E9        30.24F
COOKEVILLE     SUNNY     52  43  71 CALM      30.21S
CROSSVILLE     SUNNY     49  39  68 VRB6      30.20F
$$

TNZ061-075-076-078-094-096-097-231600-
SOUTH MIDDLE TENNESSEE

CITY           SKY/WX    TMP DP  RH WIND       PRES   REMARKS
FAYETTEVILLE   SUNNY     48  41  76 NE7       30.19R
TULLAHOMA      SUNNY     50  41  71 NE5       30.20S
WINCHESTER     SUNNY     52  43  71 CALM      30.19S
MCMINNVILLE    SUNNY     48  46  93 NE7       30.20F
COLUMBIA       SUNNY     52  50  93 E8        30.20R
SHELBYVILLE    SUNNY     54  45  71 N6        30.22R
$$

TNZ017-018-042-046-047-231600-
NORTHEAST TENNESSEE

CITY           SKY/WX    TMP DP  RH WIND       PRES   REMARKS
TRI CITIES     CLOUDY    51  39  63 N8        30.22S
ELIZABETHTON   CLOUDY    48  37  66 NW5       30.21F
$$

TNZ012-013-036-069-073-074-231600-
CENTRAL EAST TENNESSEE

CITY           SKY/WX    TMP DP  RH WIND       PRES   REMARKS
KNOXVILLE      MOSUNNY   52  41  66 E12G23    30.19F
OAK RIDGE      SUNNY     54  40  59 VRB3      30.22S
GATLINBURG     SUNNY     52  39  62 E8        30.19F
MORRISTOWN     SUNNY     52  39  62 E8        30.21F
$$

TNZ083-085-099-231600-
SOUTHEAST TENNESSEE

CITY           SKY/WX    TMP DP  RH WIND       PRES   REMARKS
CHATTANOOGA    MOSUNNY   55  41  59 N10       30.19F
$$

SKY/WX REPORTED AS FAIR MEANS FEW OR NO CLOUDS BELOW
12 THOUSAND FEET.




USA.gov is the U.S. government's official web portal to all federal, state and local government web resources and services.